[[{"header":{"parameterUnit":"m.s-1","parameterCategory":2,"la1":30.2991,"la2":30.254,"lo1":-89.0895,"lo2":-89.0444,"dy":0.0017,"dx":0.0017,"nx":28,"ny":28,"refTime":"2023-08-17T21:00:00:Z","depth":"0","parameterNumber":2,"parameterNumberName":"U-component_of_CURRENTS"},"data":[0,0,0,0,0,0,0,0,0,0,0,0,0,0,0,0,0,0,0,0,0,0,0,0,0,0,0,0,0,0,0,0,0,0,0,0,0,0,0,0,0,0,0,0,0,0,0,0,0,0,0,0,0,0,0,0,0,0,0.1988,0.199,0,0.2122,0.2123,0.2125,0.2085,0.2082,0.2079,0.2077,0.2243,0.225,0.2257,0,0,0,0,0,0,0,0,0,0,0,0,0,0.1894,0.1895,0.1988,0.199,0.1992,0.2122,0.2124,0.2125,0.2086,0.2082,0.2079,0.2075,0.2241,0.225,0.2258,0,0,0,0,0,0,0,0,0,0,0,0,0,0.1972,0.1895,0.1988,0.1987,0.1988,0.2121,0.2124,0.2126,0.2086,0.2082,0.2078,0.2074,0.2238,0.2249,0.2259,0.241,0,0,0.2292,0.2296,0,0,0,0,0,0,0,0,0.1967,0.1975,0.1986,0.1987,0.1989,0.2082,0.2151,0.2222,0.2087,0.205,0.2077,0.2072,0.2196,0.2209,0.2244,0.2418,0.2425,0.2293,0.2299,0.2304,0.2307,0,0,0,0,0,0,0,0.1962,0.1971,0.2042,0.1988,0.199,0.2047,0.2051,0.2166,0.2146,0.2053,0.205,0.2065,0.2196,0.2234,0.2248,0.2427,0.2292,0.2302,0.2308,0.2312,0.2737,0.2741,0,0,0,0,0,0,0.1939,0.1965,0.2037,0.2046,0.1967,0.2051,0.2056,0.2057,0.2144,0.2153,0.2069,0.2063,0.2218,0.2236,0.2254,0.2403,0.2304,0.2313,0.232,0.2732,0.2738,0.2743,0,0,0,0,0,0,0.1936,0.1944,0.2032,0.2009,0.2023,0.2055,0.2058,0.2062,0.2098,0.2156,0.2164,0.2099,0.2215,0.2239,0.2362,0.241,0.2318,0.2328,0.2726,0.2734,0.274,0.2725,0,0,0,0,0,0,0.1933,0.1942,0.1955,0.2007,0.2024,0.2123,0.2062,0.2067,0.2113,0.2107,0.2186,0.2196,0.2214,0.2346,0.2373,0.2423,0.2336,0.272,0.2729,0.2738,0.2719,0.2731,0.2741,0,0,0,0,0,0.1929,0.1966,0.1955,0.1965,0.2034,0.2126,0.2143,0.2151,0.2119,0.2162,0.2205,0.2193,0.2423,0.236,0.2389,0.2443,0.2715,0.2727,0.2737,0.2714,0.2728,0.274,0,0,0,0,0,0,0.1953,0.1967,0.1955,0.1999,0.206,0.2119,0.2163,0.2172,0.2244,0.2233,0.2264,0.2283,0.241,0.2457,0.2385,0.2601,0.2568,0.2585,0.254,0.2554,0.2565,0.2526,0.2345,0,0,0,0,0,0.1961,0.1985,0.2019,0.2069,0.2085,0.2129,0.2171,0.2183,0.2244,0.2268,0.2322,0.2397,0.249,0.2537,0.2633,0.2764,0.2747,0.2823,0.2834,0.2842,0.2838,0.2883,0.2893,0.2779,0.2779,0.2779,0,0,0.1994,0.2005,0.2023,0.2077,0.2112,0.2181,0.2143,0.2217,0.2277,0.2286,0.239,0.245,0.254,0.2662,0.2724,0.2696,0.2861,0.2856,0.2861,0.2853,0.2895,0.2905,0.2913,0.2787,0.2785,0.2784,0,0,0.208,0.2067,0.2112,0.2161,0.2219,0.2244,0.2266,0.2332,0.2349,0.2473,0.2482,0.2559,0.2725,0.2765,0.2813,0.2961,0.2924,0.3012,0.3022,0.3065,0.3072,0.3078,0.3016,0.3017,0.3005,0.3005,0.3005,0,0.2118,0.2165,0.2156,0.2221,0.2266,0.2269,0.2346,0.239,0.2497,0.2511,0.2508,0.2699,0.2766,0.2876,0.2917,0.2977,0.2964,0.2945,0.3069,0.3075,0.3082,0.3017,0.3018,0.3006,0.3006,0.3006,0.3006,0,0.2238,0.2279,0.2318,0.2373,0.243,0.2504,0.2537,0.258,0.2594,0.2625,0.273,0.2812,0.2895,0.2952,0.2981,0.3077,0.3036,0.3072,0.3005,0.309,0.3019,0.3019,0.3007,0.3007,0.3007,0.3006,0,0,0.2293,0.2379,0.2391,0.2419,0.2506,0.2553,0.2631,0.2685,0.2686,0.2785,0.2814,0.2969,0.2953,0.301,0.3049,0.3097,0.3114,0.3103,0.3105,0.2984,0.3132,0.2865,0.2839,0.3169,0.3171,0.3172,0.3039,0,0.2383,0.2511,0.2532,0.2645,0.2697,0.2703,0.2758,0.2803,0.2819,0.2847,0.2896,0.2957,0.2992,0.3009,0.3068,0.3127,0.3128,0.3142,0.3119,0.3116,0.2823,0.2837,0.2675,0.2524,0.3039,0.304,0.304,0,0.2472,0.254,0.2664,0.2714,0.273,0.2787,0.2803,0.2858,0.2876,0.2882,0.2921,0.2943,0.3018,0.3035,0.3114,0.3121,0.312,0.3146,0.3143,0.2899,0.2852,0.2544,0.2506,0.2468,0.3041,0.3041,0.3041,0,0.2489,0.2607,0.2693,0.2733,0.2809,0.282,0.284,0.286,0.2858,0.2883,0.2868,0.2951,0.2962,0.3035,0.3031,0.3097,0.3067,0.3162,0.2898,0.2876,0.2734,0.2694,0.2609,0.3191,0.3191,0.3192,0.3192,0,0.2562,0.2611,0.2691,0.274,0.2776,0.2822,0.2824,0.2836,0.2837,0.282,0.2866,0.2859,0.2972,0.2948,0.2998,0.2881,0.3018,0.2869,0.2832,0.2718,0.2681,0.2638,0.2638,0.3186,0.3188,0.3189,0.3189,0,0.2567,0.2634,0.2704,0.278,0.2786,0.2803,0.2797,0.2784,0.2783,0.276,0.2762,0.2785,0.2731,0.273,0.2787,0.2764,0.262,0.2647,0.2426,0.2364,0.2105,0.211,0.1874,0.1849,0.238,0.2372,0.2366,0,0.2588,0.2637,0.2714,0.2734,0.276,0.2773,0.2763,0.276,0.2734,0.2706,0.2689,0.2607,0.2519,0.2396,0.232,0.2213,0.2276,0.2013,0.2127,0.2015,0.2001,0.1992,0.1996,0.193,0.1921,0.1914,0.1908,0,0.2612,0.2629,0.269,0.2725,0.2727,0.2715,0.2697,0.2654,0.2628,0.2586,0.2493,0.2416,0.2208,0.2001,0.1784,0.1758,0.1879,0.1848,0.1857,0.1705,0.1576,0.1557,0.2033,0.184,0.1847,0.1852,0.1856,0.1858,0.26,0.2634,0.269,0.2698,0.2689,0.2621,0.2555,0.2508,0.2415,0.2254,0.2298,0.2069,0.1825,0.1493,0.1422,0.1176,0.1333,0.1201,0.1229,0.1241,0.1169,0.1397,0.1087,0.109,0.1092,0.1093,0.1095,0,0.2577,0.2615,0.2651,0.2623,0.2552,0.2571,0.2475,0.2359,0.2186,0.2031,0.1893,0.1521,0.124,0.1041,0.0733,0.0631,0.0716,0.062,0.0686,0.0745,0.1052,0.0988,0.0492,0.0492,0.0492,0.0492,0.0492,0.0492,0.2572,0.259,0.26,0.2473,0.2437,0.2271,0.2189,0.2022,0.1863,0.1497,0.1207,0.1072,0.0837,0.0504,0.0282,0.0278,0.0354,0.0191,0.0338,0.0662,0.0726,0.0786,0.0731,0.0188,0.0188,0.003,0.0028,0.0027]},{"header":{"parameterUnit":"m.s-1","parameterCategory":2,"la1":30.2991,"la2":30.254,"lo1":-89.0895,"lo2":-89.0444,"dy":0.0017,"dx":0.0017,"nx":28,"ny":28,"refTime":"2023-08-17T21:00:00:Z","depth":"0","parameterNumber":3,"parameterNumberName":"V-component_of_CURRENTS"},"data":[0,0,0,0,0,0,0,0,0,0,0,0,0,0,0,0,0,0,0,0,0,0,0,0,0,0,0,0,0,0,0,0,0,0,0,0,0,0,0,0,0,0,0,0,0,0,0,0,0,0,0,0,0,0,0,0,0,0,0.0622,0.0623,0,0.0688,0.0688,0.0689,0.0707,0.0707,0.0707,0.0707,0.0765,0.0766,0.0768,0,0,0,0,0,0,0,0,0,0,0,0,0,0.0475,0.0477,0.0622,0.0623,0.0624,0.0688,0.0688,0.0689,0.0707,0.0707,0.0707,0.0707,0.0764,0.0766,0.0768,0,0,0,0,0,0,0,0,0,0,0,0,0,0.0535,0.0478,0.0622,0.0644,0.0647,0.0688,0.0688,0.0689,0.0707,0.0707,0.0707,0.0707,0.0764,0.0766,0.0768,0.0781,0,0,0.0775,0.0776,0,0,0,0,0,0,0,0,0.0532,0.054,0.064,0.0643,0.0646,0.0693,0.0658,0.0721,0.0707,0.0679,0.0707,0.0707,0.0743,0.0747,0.0753,0.0784,0.0786,0.0775,0.0777,0.0777,0.0778,0,0,0,0,0,0,0,0.0527,0.0537,0.0643,0.0641,0.0645,0.0639,0.0647,0.0669,0.0706,0.0682,0.0684,0.0699,0.0744,0.0751,0.0754,0.0787,0.0775,0.0777,0.0778,0.0779,0.0905,0.0907,0,0,0,0,0,0,0.0531,0.0534,0.0641,0.0646,0.0593,0.0642,0.0651,0.0674,0.0706,0.0713,0.0699,0.07,0.0747,0.0752,0.0757,0.0819,0.0777,0.078,0.0781,0.0903,0.0906,0.0908,0,0,0,0,0,0,0.0528,0.054,0.0639,0.0594,0.0607,0.0645,0.067,0.0676,0.0684,0.072,0.0726,0.0702,0.0747,0.0753,0.0766,0.0819,0.0781,0.0783,0.0901,0.0904,0.0907,0.0915,0,0,0,0,0,0,0.0523,0.0539,0.0545,0.0595,0.061,0.0655,0.0671,0.0677,0.0695,0.0696,0.0725,0.073,0.0747,0.0763,0.0769,0.0822,0.0784,0.0899,0.0902,0.0906,0.0912,0.0918,0.0922,0,0,0,0,0,0.0518,0.0531,0.0545,0.0558,0.0621,0.0656,0.0661,0.0685,0.0695,0.0693,0.071,0.073,0.0793,0.0764,0.0771,0.0827,0.0897,0.0901,0.0906,0.091,0.0916,0.0922,0,0,0,0,0,0,0.0474,0.0536,0.0552,0.0584,0.0614,0.066,0.0663,0.0684,0.0697,0.0696,0.0726,0.0732,0.0772,0.0794,0.0762,0.0879,0.0861,0.0867,0.0862,0.0868,0.0873,0.091,0.0786,0,0,0,0,0,0.0468,0.0494,0.0546,0.0571,0.0582,0.0621,0.0636,0.0655,0.0681,0.0687,0.0708,0.0747,0.0798,0.0822,0.0851,0.0897,0.0916,0.0949,0.0954,0.0958,0.0996,0.1073,0.1089,0.0923,0.0923,0.0923,0,0,0.0468,0.0498,0.0518,0.0562,0.0585,0.0602,0.0628,0.065,0.0673,0.0692,0.0711,0.075,0.081,0.0863,0.0889,0.0887,0.1,0.0964,0.0967,0.1003,0.108,0.1096,0.111,0.0926,0.0925,0.0925,0,0,0.047,0.0494,0.0512,0.0527,0.056,0.0584,0.059,0.0629,0.0651,0.0672,0.0716,0.0791,0.082,0.091,0.0954,0.1012,0.1015,0.1019,0.1086,0.116,0.1174,0.1188,0.1156,0.1167,0.1034,0.1034,0.1034,0,0.0457,0.0494,0.052,0.0527,0.0548,0.0575,0.0595,0.0616,0.0656,0.0713,0.0674,0.0832,0.0863,0.1017,0.1034,0.103,0.1024,0.1049,0.1166,0.118,0.1194,0.116,0.1171,0.1035,0.1035,0.1035,0.1035,0,0.0472,0.0492,0.0497,0.0522,0.0541,0.0558,0.0597,0.0626,0.065,0.071,0.0833,0.0884,0.1005,0.1029,0.104,0.1189,0.1131,0.1147,0.1144,0.1211,0.1169,0.1181,0.1037,0.1036,0.1036,0.1036,0,0,0.0469,0.0505,0.0504,0.0525,0.0542,0.0571,0.0608,0.0697,0.0783,0.0816,0.0949,0.1048,0.1114,0.1173,0.1226,0.1298,0.1348,0.1258,0.1262,0.1215,0.1426,0.134,0.1343,0.1372,0.1376,0.1379,0.1329,0,0.0472,0.05,0.0516,0.0548,0.0568,0.0606,0.0658,0.0741,0.0816,0.0935,0.1055,0.1173,0.1158,0.1232,0.1305,0.1358,0.1392,0.1355,0.1381,0.1381,0.129,0.1362,0.1329,0.1281,0.1341,0.1343,0.1344,0,0.0478,0.0499,0.0535,0.0602,0.0618,0.0641,0.0772,0.0825,0.0998,0.1067,0.1219,0.1294,0.1441,0.1397,0.1511,0.1477,0.1455,0.1465,0.1464,0.1408,0.1323,0.1243,0.13,0.1358,0.1363,0.1361,0.136,0,0.0488,0.0518,0.0557,0.0566,0.0637,0.0684,0.0736,0.0885,0.0983,0.1169,0.1264,0.1429,0.1518,0.1554,0.1547,0.1535,0.162,0.1609,0.1502,0.149,0.1487,0.147,0.1611,0.1681,0.1681,0.1681,0.1681,0,0.0498,0.0527,0.0564,0.0587,0.0663,0.0703,0.0836,0.0922,0.1088,0.1239,0.134,0.1478,0.1564,0.1615,0.1585,0.1565,0.1642,0.1535,0.1508,0.1477,0.1461,0.1531,0.1553,0.1679,0.1679,0.168,0.168,0,0.0517,0.0535,0.0581,0.0645,0.0671,0.0729,0.0864,0.0989,0.1108,0.1301,0.1358,0.1531,0.1578,0.1592,0.1645,0.1609,0.161,0.1556,0.1455,0.1419,0.1383,0.1405,0.1489,0.1549,0.1457,0.1455,0.1454,0,0.0537,0.0558,0.0618,0.0662,0.0692,0.0781,0.0877,0.0997,0.1125,0.1334,0.1437,0.1532,0.1613,0.1613,0.1555,0.1466,0.1529,0.1399,0.1412,0.1406,0.1412,0.142,0.1469,0.1367,0.1365,0.1363,0.1362,0,0.0569,0.0584,0.0631,0.0716,0.0794,0.0895,0.1017,0.1101,0.1262,0.1381,0.1534,0.1597,0.1589,0.1537,0.1415,0.1364,0.1448,0.1358,0.1437,0.144,0.1382,0.1416,0.1296,0.1346,0.1348,0.1349,0.135,0.135,0.0592,0.0634,0.0697,0.0781,0.0876,0.0995,0.1066,0.1193,0.1331,0.1479,0.1554,0.1603,0.156,0.1396,0.1338,0.126,0.1306,0.1277,0.1316,0.1332,0.1392,0.118,0.1157,0.1158,0.1158,0.1158,0.1159,0,0.0617,0.0679,0.0769,0.0868,0.0969,0.1014,0.1163,0.122,0.1329,0.1442,0.1521,0.1501,0.1429,0.1357,0.1249,0.1253,0.1286,0.1282,0.1345,0.1412,0.1299,0.13,0.1207,0.1207,0.1207,0.1206,0.1206,0.1206,0.064,0.072,0.0775,0.092,0.0995,0.1096,0.1159,0.1231,0.1298,0.1357,0.1363,0.14,0.1418,0.1315,0.1316,0.1326,0.1462,0.1375,0.1494,0.1452,0.1457,0.1462,0.1474,0.1419,0.1419,0.1613,0.1615,0.1616]}],[{"header":{"parameterUnit":"m.s-1","parameterCategory":2,"la1":30.2991,"la2":30.254,"lo1":-89.0895,"lo2":-89.0444,"dy":0.0017,"dx":0.0017,"nx":28,"ny":28,"refTime":"2023-08-17T21:00:00:Z","depth":"2","parameterNumber":2,"parameterNumberName":"U-component_of_CURRENTS"},"data":[0,0,0,0,0,0,0,0,0,0,0,0,0,0,0,0,0,0,0,0,0,0,0,0,0,0,0,0,0,0,0,0,0,0,0,0,0,0,0,0,0,0,0,0,0,0,0,0,0,0,0,0,0,0,0,0,0,0,0.1422,0.1421,0,0.1514,0.1517,0.152,0.1558,0.1555,0.1553,0.1551,0.1718,0.1724,0.1731,0,0,0,0,0,0,0,0,0,0,0,0,0,0.1534,0.1532,0.1422,0.1421,0.142,0.1514,0.1517,0.1521,0.1558,0.1555,0.1552,0.155,0.1715,0.1723,0.1731,0,0,0,0,0,0,0,0,0,0,0,0,0,0.1564,0.1532,0.1422,0.1432,0.1432,0.1513,0.1517,0.1522,0.1559,0.1555,0.1552,0.1548,0.1713,0.1722,0.1732,0.1867,0,0,0.1763,0.1767,0,0,0,0,0,0,0,0,0.1562,0.1563,0.1431,0.1431,0.1431,0.1499,0.1617,0.1633,0.156,0.1536,0.1551,0.1546,0.1639,0.1655,0.1713,0.1875,0.1882,0.1764,0.177,0.1774,0.1777,0,0,0,0,0,0,0,0.156,0.156,0.1483,0.143,0.143,0.1518,0.1518,0.1623,0.1627,0.1538,0.1535,0.1508,0.1642,0.1704,0.1717,0.1884,0.1764,0.1773,0.1779,0.1783,0.2142,0.2146,0,0,0,0,0,0,0.149,0.1557,0.1479,0.1483,0.1462,0.1516,0.1518,0.1501,0.1624,0.1631,0.1511,0.1509,0.1688,0.1705,0.1723,0.1868,0.1774,0.1784,0.179,0.2139,0.2143,0.2147,0,0,0,0,0,0,0.1493,0.1483,0.1475,0.1503,0.1504,0.1513,0.1497,0.1504,0.1569,0.1598,0.1611,0.1564,0.1686,0.1709,0.1796,0.1874,0.1788,0.1797,0.2135,0.214,0.2145,0.217,0,0,0,0,0,0,0.1496,0.1484,0.1488,0.1498,0.1499,0.1544,0.1498,0.1508,0.1545,0.1545,0.1649,0.166,0.1685,0.1781,0.1806,0.1886,0.1805,0.213,0.2137,0.2143,0.2165,0.2176,0.2185,0,0,0,0,0,0.15,0.1512,0.1488,0.1479,0.1491,0.1544,0.156,0.1569,0.1551,0.1613,0.1639,0.1657,0.1841,0.1791,0.182,0.1905,0.2127,0.2135,0.2143,0.2161,0.2174,0.2185,0,0,0,0,0,0,0.1575,0.1514,0.1489,0.1484,0.1512,0.1541,0.16,0.1591,0.1672,0.1666,0.1698,0.1715,0.1826,0.1869,0.1812,0.203,0.1993,0.2007,0.1996,0.201,0.2019,0.2077,0.1814,0,0,0,0,0,0.1582,0.157,0.1545,0.1551,0.1575,0.1598,0.1627,0.1619,0.1659,0.1693,0.1738,0.1804,0.1892,0.1942,0.2023,0.215,0.2154,0.2227,0.2237,0.2245,0.2314,0.2368,0.2388,0.2173,0.2173,0.2173,0,0,0.1599,0.1571,0.156,0.1565,0.1608,0.1626,0.1618,0.1666,0.1679,0.1701,0.1779,0.1846,0.1932,0.2051,0.2109,0.209,0.229,0.2255,0.2261,0.2327,0.2378,0.2399,0.2417,0.2179,0.2178,0.2177,0,0,0.1609,0.1633,0.1612,0.1643,0.1657,0.1685,0.1694,0.1728,0.1769,0.1834,0.1853,0.1965,0.2079,0.2167,0.2222,0.2355,0.2337,0.2379,0.2487,0.2536,0.2553,0.257,0.2505,0.2516,0.2387,0.2387,0.2387,0,0.1636,0.1612,0.1632,0.1629,0.1662,0.1702,0.172,0.1776,0.1817,0.1893,0.1854,0.2079,0.2148,0.232,0.2373,0.2384,0.2363,0.2418,0.2546,0.2562,0.2578,0.251,0.2521,0.2389,0.2389,0.2389,0.2388,0,0.1632,0.1618,0.1649,0.1643,0.1683,0.1748,0.1772,0.1859,0.1903,0.1947,0.2123,0.221,0.2348,0.2397,0.2439,0.2619,0.2543,0.2536,0.2501,0.2601,0.2521,0.2532,0.2392,0.2391,0.2391,0.239,0,0,0.1721,0.1648,0.1678,0.1675,0.1717,0.1768,0.1836,0.1963,0.205,0.2128,0.2249,0.2448,0.2511,0.2586,0.2644,0.2737,0.2807,0.271,0.2711,0.2623,0.2831,0.2485,0.2461,0.2806,0.2811,0.2815,0.2692,0,0.1754,0.1715,0.1697,0.1741,0.1747,0.1835,0.1908,0.2009,0.2109,0.2237,0.2388,0.2507,0.2564,0.2632,0.2743,0.2809,0.2856,0.2837,0.2775,0.2773,0.2435,0.2473,0.2339,0.2196,0.2703,0.2704,0.2706,0,0.1791,0.1763,0.1758,0.179,0.1827,0.1883,0.209,0.2142,0.232,0.2385,0.2534,0.2595,0.2781,0.2772,0.2927,0.2902,0.2903,0.2926,0.2919,0.2621,0.2451,0.2205,0.2197,0.2724,0.2722,0.2721,0.272,0,0.1849,0.185,0.1861,0.1875,0.1896,0.2003,0.2091,0.224,0.2306,0.2478,0.2515,0.2704,0.2759,0.2857,0.2869,0.2919,0.2946,0.2986,0.266,0.2629,0.2525,0.2476,0.3088,0.3088,0.3089,0.3089,0.3089,0,0.1891,0.1922,0.1917,0.1925,0.2035,0.2062,0.2212,0.2311,0.2427,0.2493,0.2599,0.2642,0.2796,0.2795,0.2851,0.272,0.2896,0.2693,0.2602,0.2511,0.2465,0.2964,0.2952,0.3084,0.3085,0.3086,0.3087,0,0.1883,0.1881,0.1872,0.1948,0.2016,0.2089,0.2221,0.2299,0.2415,0.248,0.2512,0.2602,0.2572,0.2585,0.2666,0.2609,0.2572,0.2468,0.227,0.2157,0.2238,0.2229,0.216,0.2147,0.2137,0.2128,0.212,0,0.1851,0.1836,0.1873,0.19,0.195,0.2074,0.2145,0.2275,0.2317,0.2437,0.2445,0.2429,0.235,0.2217,0.2145,0.2019,0.2214,0.1782,0.1893,0.2238,0.2158,0.2165,0.2171,0.1745,0.1735,0.1727,0.1721,0,0.1792,0.1807,0.1801,0.1831,0.1911,0.196,0.209,0.2098,0.2222,0.225,0.2253,0.2203,0.2028,0.1812,0.1555,0.1513,0.1796,0.1599,0.207,0.1947,0.1823,0.175,0.1776,0.1648,0.1655,0.1661,0.1665,0.1668,0.1783,0.1743,0.1746,0.1781,0.1853,0.1879,0.1899,0.1943,0.1957,0.1945,0.1989,0.1813,0.1737,0.126,0.1142,0.1037,0.121,0.1209,0.1248,0.1293,0.1214,0.1072,0.0737,0.0739,0.074,0.0742,0.0743,0,0.1754,0.1732,0.1724,0.1749,0.1791,0.1874,0.1889,0.1832,0.1778,0.1664,0.1596,0.1288,0.1026,0.0942,0.0684,0.0584,0.0746,0.0539,0.0824,0.0889,0.095,0.087,0.0294,0.0293,0.0292,0.0291,0,0,0.1744,0.1708,0.1668,0.1713,0.1782,0.1794,0.1787,0.1632,0.1504,0.1252,0.1085,0.1005,0.0925,0.065,0.0555,0.0403,0.0673,0.0355,0.0711,0.1118,0.118,0.1306,0.1246,0,0,0,0,0]},{"header":{"parameterUnit":"m.s-1","parameterCategory":2,"la1":30.2991,"la2":30.254,"lo1":-89.0895,"lo2":-89.0444,"dy":0.0017,"dx":0.0017,"nx":28,"ny":28,"refTime":"2023-08-17T21:00:00:Z","depth":"2","parameterNumber":3,"parameterNumberName":"V-component_of_CURRENTS"},"data":[0,0,0,0,0,0,0,0,0,0,0,0,0,0,0,0,0,0,0,0,0,0,0,0,0,0,0,0,0,0,0,0,0,0,0,0,0,0,0,0,0,0,0,0,0,0,0,0,0,0,0,0,0,0,0,0,0,0,0.0119,0.0118,0,0.0114,0.0115,0.0115,0.0175,0.0176,0.0177,0.0178,0.0207,0.0207,0.0207,0,0,0,0,0,0,0,0,0,0,0,0,0,0.0127,0.0127,0.0119,0.0118,0.0118,0.0114,0.0115,0.0115,0.0175,0.0176,0.0177,0.0178,0.0207,0.0207,0.0207,0,0,0,0,0,0,0,0,0,0,0,0,0,0.0131,0.0127,0.0119,0.0141,0.0142,0.0114,0.0115,0.0116,0.0175,0.0176,0.0177,0.0178,0.0207,0.0207,0.0207,0.0181,0,0,0.0207,0.0207,0,0,0,0,0,0,0,0,0.0131,0.0132,0.0138,0.0139,0.014,0.0139,0.0127,0.0136,0.0174,0.0171,0.0178,0.0179,0.0181,0.0183,0.0191,0.0182,0.0183,0.0207,0.0207,0.0207,0.0207,0,0,0,0,0,0,0,0.013,0.0132,0.0126,0.0137,0.0138,0.0131,0.0135,0.013,0.0176,0.0171,0.0174,0.0159,0.0183,0.0191,0.0192,0.0184,0.0207,0.0207,0.0207,0.0206,0.0235,0.0236,0,0,0,0,0,0,0.0115,0.0132,0.0126,0.0125,0.0129,0.0129,0.0134,0.0145,0.0175,0.0178,0.0158,0.0162,0.019,0.0192,0.0193,0.0234,0.0207,0.0206,0.0206,0.0235,0.0236,0.0236,0,0,0,0,0,0,0.0116,0.0116,0.0126,0.012,0.0119,0.0128,0.014,0.0144,0.0167,0.0163,0.0169,0.0177,0.0191,0.0193,0.0186,0.0233,0.0206,0.0206,0.0234,0.0235,0.0236,0.027,0,0,0,0,0,0,0.0117,0.0117,0.0119,0.012,0.0119,0.0115,0.0138,0.0143,0.0151,0.0156,0.0181,0.0184,0.0192,0.0186,0.0186,0.0232,0.0206,0.0233,0.0234,0.0236,0.0268,0.0272,0.0276,0,0,0,0,0,0.0118,0.0127,0.012,0.0118,0.0123,0.0113,0.0114,0.0128,0.015,0.0157,0.0164,0.0184,0.0198,0.0185,0.0185,0.0233,0.0232,0.0234,0.0236,0.0266,0.0271,0.0276,0,0,0,0,0,0,0.0131,0.0132,0.0126,0.0135,0.0119,0.012,0.0129,0.0132,0.0145,0.0155,0.0168,0.0171,0.0197,0.0194,0.018,0.0246,0.0229,0.023,0.0252,0.0257,0.0261,0.0369,0.0206,0,0,0,0,0,0.0128,0.0137,0.0125,0.0124,0.013,0.0129,0.0127,0.0128,0.0132,0.0142,0.0144,0.0164,0.0201,0.0209,0.0223,0.0233,0.0269,0.0272,0.0276,0.0279,0.0367,0.046,0.0482,0.0242,0.0242,0.0242,0,0,0.0119,0.0127,0.0123,0.0125,0.013,0.0111,0.0137,0.0135,0.0114,0.0139,0.0126,0.017,0.0205,0.0234,0.0247,0.0238,0.0339,0.0281,0.0284,0.0373,0.0464,0.0488,0.051,0.0243,0.0243,0.0243,0,0,0.0104,0.0132,0.0128,0.0113,0.0103,0.0108,0.0107,0.0101,0.0111,0.0084,0.0133,0.0225,0.0188,0.0287,0.032,0.0357,0.0359,0.0329,0.0438,0.0523,0.0546,0.0566,0.0531,0.0548,0.033,0.033,0.033,0,0.0094,0.0082,0.0118,0.01,0.0082,0.0106,0.0078,0.0084,0.0062,0.0124,0.0076,0.0227,0.0246,0.0404,0.0426,0.0381,0.0372,0.0411,0.0534,0.0556,0.0576,0.0536,0.0555,0.0332,0.0331,0.0331,0.0331,0,0.0057,0.0039,0.0043,0.003,0.0027,0.0007,0.0011,0.0034,0.0049,0.0093,0.0229,0.0282,0.0416,0.0418,0.0431,0.0614,0.0533,0.0526,0.0529,0.0604,0.0553,0.0572,0.0334,0.0334,0.0333,0.0333,0,0,0.0062,0.0022,0.0023,0.0008,-0.0015,-0.0003,-0.0001,0.0068,0.0176,0.0182,0.0338,0.0446,0.057,0.0625,0.0679,0.0772,0.0863,0.0715,0.0718,0.0693,0.0955,0.0796,0.0799,0.0858,0.0864,0.0869,0.082,0,0.0019,-0.0033,-0.0036,-0.0073,-0.0095,-0.0053,-0.002,0.0061,0.0149,0.0303,0.0463,0.0617,0.0609,0.0719,0.0815,0.0892,0.0934,0.0873,0.0882,0.0882,0.0746,0.0828,0.0772,0.072,0.0839,0.0843,0.0845,0,-0.002,-0.0046,-0.0105,-0.008,-0.0066,-0.0056,0.0104,0.0135,0.0372,0.0459,0.0679,0.0792,0.1013,0.0956,0.1125,0.107,0.1038,0.1049,0.1045,0.0936,0.0766,0.0688,0.075,0.0877,0.0875,0.0872,0.087,0,-0.0036,-0.0075,-0.0111,-0.013,-0.0102,-0.004,0.0034,0.0232,0.0348,0.0619,0.0764,0.0993,0.1139,0.1187,0.1197,0.1172,0.1306,0.1257,0.1064,0.1045,0.1035,0.1006,0.136,0.136,0.136,0.1361,0.1361,0,-0.0091,-0.0101,-0.0097,-0.0125,-0.0044,-0.0006,0.0171,0.0289,0.0529,0.0737,0.0889,0.1075,0.1214,0.1291,0.1252,0.121,0.133,0.1138,0.1073,0.1023,0.0996,0.119,0.1171,0.1358,0.1359,0.1359,0.136,0,-0.0114,-0.0141,-0.0166,-0.0123,-0.007,0.0006,0.0221,0.0374,0.0582,0.0851,0.0945,0.1182,0.1267,0.129,0.1363,0.1275,0.1245,0.1168,0.1035,0.0958,0.0896,0.0879,0.0996,0.0991,0.0987,0.0984,0.0981,0,-0.0133,-0.0166,-0.0154,-0.0116,-0.0084,0.0056,0.0181,0.0387,0.0557,0.0905,0.1035,0.1207,0.1306,0.1292,0.1206,0.1075,0.1112,0.0901,0.0894,0.096,0.0884,0.0873,0.0862,0.0834,0.083,0.0827,0.0825,0,-0.0158,-0.0162,-0.0166,-0.0103,-0.0005,0.0118,0.0317,0.0445,0.0718,0.0924,0.1176,0.1276,0.1271,0.1173,0.0978,0.0884,0.093,0.0825,0.1023,0.0915,0.0799,0.0725,0.0722,0.0796,0.0799,0.0801,0.0803,0.0804,-0.0134,-0.0138,-0.0131,-0.0051,0.0068,0.0218,0.0356,0.0543,0.0784,0.1092,0.1164,0.1258,0.1195,0.0912,0.0799,0.0667,0.0694,0.0627,0.0642,0.066,0.0631,0.0513,0.0444,0.0445,0.0445,0.0446,0.0447,0,-0.0105,-0.0096,-0.0047,0.0064,0.0214,0.0281,0.0492,0.0621,0.0875,0.101,0.1174,0.1032,0.0905,0.0808,0.0575,0.0453,0.0512,0.0408,0.0521,0.0545,0.0567,0.0541,0.0327,0.0327,0.0327,0.0328,0,0,-0.0085,-0.0057,-0.0042,0.0194,0.033,0.0546,0.067,0.0797,0.0888,0.0984,0.0999,0.1019,0.0881,0.0699,0.0562,0.044,0.0526,0.041,0.0499,0.0668,0.0693,0.0664,0.0643,0,0,0,0,0]}],[{"header":{"parameterUnit":"m.s-1","parameterCategory":2,"la1":30.2991,"la2":30.254,"lo1":-89.0895,"lo2":-89.0444,"dy":0.0017,"dx":0.0017,"nx":28,"ny":28,"refTime":"2023-08-17T21:00:00:Z","depth":"4","parameterNumber":2,"parameterNumberName":"U-component_of_CURRENTS"},"data":[0,0,0,0,0,0,0,0,0,0,0,0,0,0,0,0,0,0,0,0,0,0,0,0,0,0,0,0,0,0,0,0,0,0,0,0,0,0,0,0,0,0,0,0,0,0,0,0,0,0,0,0,0,0,0,0,0,0,0.0454,0.0453,0,0.0332,0.0331,0.033,0.0353,0.0355,0.0357,0.0359,0.0135,0.0127,0.0119,0,0,0,0,0,0,0,0,0,0,0,0,0,0.0542,0.0541,0.0454,0.0453,0.0451,0.0333,0.0331,0.0329,0.0352,0.0355,0.0358,0.036,0.0137,0.0128,0.0118,0,0,0,0,0,0,0,0,0,0,0,0,0,0.047,0.0541,0.0454,0.0449,0.0447,0.0333,0.0331,0.0329,0.0352,0.0355,0.0358,0.0361,0.014,0.0129,0.0117,-0.0026,0,0,0.008,0.0074,0,0,0,0,0,0,0,0,0.0475,0.0467,0.0451,0.0449,0.0447,0.0362,0.028,0.0205,0.0351,0.0387,0.0359,0.0363,0.0199,0.0182,0.0152,-0.0036,-0.0046,0.0079,0.0071,0.0066,0.0063,0,0,0,0,0,0,0,0.048,0.0471,0.0405,0.0449,0.0447,0.0396,0.0391,0.0265,0.0273,0.0384,0.0386,0.0372,0.0198,0.0164,0.0147,-0.0049,0.0079,0.0068,0.0061,0.0056,-0.0143,-0.0141,0,0,0,0,0,0,0.0501,0.0477,0.0409,0.0402,0.047,0.0393,0.0387,0.0385,0.0277,0.0264,0.0369,0.0374,0.0183,0.0161,0.0139,0.0105,0.0066,0.0055,0.0048,-0.0145,-0.0143,-0.0141,0,0,0,0,0,0,0.0503,0.0496,0.0414,0.0436,0.0423,0.0389,0.0386,0.0381,0.0353,0.0267,0.0253,0.0348,0.0185,0.0156,0.0059,0.0092,0.0049,0.0038,-0.0147,-0.0144,-0.0142,-0.0054,0,0,0,0,0,0,0.0506,0.0498,0.0505,0.0438,0.0422,0.0334,0.0382,0.0376,0.0339,0.0344,0.0242,0.0226,0.0185,0.0078,0.0047,0.0074,0.0029,-0.015,-0.0146,-0.0143,-0.006,-0.0049,-0.0039,0,0,0,0,0,0.051,0.0492,0.0506,0.0498,0.0433,0.0332,0.0317,0.0304,0.0335,0.0297,0.0269,0.0229,0.0084,0.0066,0.0031,0.0055,-0.0152,-0.0147,-0.0143,-0.0064,-0.0051,-0.0039,0,0,0,0,0,0,0.0516,0.0491,0.0505,0.0479,0.0411,0.0336,0.0309,0.0291,0.0235,0.0262,0.0195,0.0172,0.0114,0.0063,0.0047,0.0022,-0.002,-0.0022,0.0053,0.0064,0.0074,0.0113,0.0019,0,0,0,0,0,0.0525,0.0516,0.0462,0.0434,0.0414,0.0361,0.0324,0.031,0.0252,0.0234,0.0171,0.0136,0.0098,0.0064,0.0001,-0.0068,-0.009,-0.0051,-0.0041,-0.0032,-0.0018,0.0011,0.0025,-0.0126,-0.0126,-0.0126,0,0,0.0517,0.0501,0.0495,0.0436,0.0399,0.0327,0.0346,0.0289,0.0248,0.0209,0.0144,0.0131,0.0084,0.0052,0.0026,0.0014,-0.0009,-0.0026,-0.0019,-0.0009,0.0017,0.0031,0.0044,-0.0123,-0.0123,-0.0124,0,0,0.0455,0.0486,0.0445,0.0388,0.0332,0.0307,0.0288,0.0219,0.0225,0.0143,0.0162,0.0175,0.0048,0.0078,0.0066,0.0079,0.0033,0.0076,0.0156,0.0184,0.0196,0.0207,0.0158,0.0164,0.0096,0.0096,0.0096,0,0.0453,0.0391,0.0404,0.0327,0.0293,0.0295,0.0221,0.02,0.0113,0.0151,0.0135,0.0127,0.0074,0.0116,0.0158,0.0101,0.009,0.0107,0.0197,0.0207,0.0217,0.0165,0.017,0.0101,0.01,0.01,0.0099,0,0.0327,0.0288,0.0252,0.0188,0.0152,0.0085,0.0075,0.008,0.0106,0.0116,0.0166,0.0145,0.0178,0.0176,0.0158,0.024,0.0196,0.0193,0.0164,0.0238,0.0177,0.0181,0.0107,0.0106,0.0104,0.0103,0,0,0.0278,0.0193,0.0167,0.0151,0.0085,0.0049,0.0042,0.0058,0.0128,0.0111,0.02,0.0196,0.0283,0.0282,0.0305,0.0338,0.0378,0.0314,0.0313,0.0261,0.0396,0.0352,0.035,0.0405,0.0407,0.0409,0.031,0,0.0171,0.0035,0.0021,-0.0074,-0.0121,-0.0069,-0.0061,-0.0014,0.0057,0.0147,0.0242,0.0307,0.0295,0.0368,0.0404,0.0393,0.0401,0.0402,0.0336,0.0333,0.0284,0.036,0.0417,0.0313,0.0314,0.0314,0.0315,0,0.0023,-0.0026,-0.014,-0.012,-0.0125,-0.0149,-0.0027,-0.0013,0.015,0.0223,0.036,0.0427,0.0521,0.0498,0.0513,0.0522,0.0473,0.0441,0.0437,0.0375,0.03,0.0235,0.0322,0.0321,0.0321,0.032,0.032,0,-0.0037,-0.0133,-0.0195,-0.0223,-0.0212,-0.0162,-0.01,0.004,0.0127,0.0322,0.0406,0.0529,0.0592,0.0593,0.0532,0.0547,0.0501,0.0504,0.0398,0.039,0.0414,0.0404,0.0502,0.0502,0.0502,0.0502,0.0503,0,-0.0155,-0.0208,-0.0204,-0.0248,-0.02,-0.0158,-0.0032,0.0059,0.0232,0.0342,0.0479,0.056,0.0626,0.0613,0.056,0.0478,0.0515,0.0423,0.0389,0.0445,0.0441,0.0413,0.0404,0.0498,0.0499,0.05,0.0501,0,-0.0235,-0.0272,-0.0314,-0.0279,-0.0239,-0.0181,-0.0003,0.0106,0.0251,0.0398,0.0464,0.059,0.0612,0.0597,0.0565,0.0489,0.0424,0.0365,0.0373,0.0336,0.0282,0.0279,0.029,0.0288,0.0287,0.0285,0.0284,0,-0.0293,-0.0332,-0.0321,-0.029,-0.0265,-0.0146,-0.0043,0.0117,0.0221,0.0387,0.0437,0.0528,0.0593,0.0505,0.0492,0.0397,0.0369,0.0282,0.036,0.0309,0.0274,0.0273,0.0272,0.0282,0.0282,0.0281,0.0281,0,-0.0353,-0.0354,-0.0371,-0.0312,-0.0232,-0.0127,0.0018,0.0069,0.0242,0.0349,0.0442,0.0481,0.0496,0.0505,0.042,0.0343,0.0337,0.0267,0.0271,0.0344,0.0299,0.0266,0.0266,0.0276,0.0276,0.0277,0.0277,0,-0.0361,-0.0374,-0.0375,-0.0303,-0.0217,-0.0127,-0.0055,0.0073,0.0185,0.0342,0.0351,0.0434,0.051,0.0469,0.0381,0.0334,0.0345,0.0277,0.0281,0.0286,0.0332,0.0277,0.0235,0,0,0,0,0,-0.0343,-0.0358,-0.0334,-0.0278,-0.0197,-0.0135,-0.0015,0.0054,0.0166,0.0227,0.0307,0.034,0.0342,0.0369,0.0324,0.0333,0.0297,0.0266,0.021,0.0247,0.0253,0.0307,0,0,0,0,0,0,-0.0335,-0.0348,-0.0352,-0.0254,-0.0202,-0.0101,-0.0042,0.0018,0.0077,0.0179,0.021,0.0279,0.0306,0.0387,0.0318,0.0311,0.0248,0.0306,0.0302,0.0243,0.0249,0.0254,0.0312,0,0,0,0,0]},{"header":{"parameterUnit":"m.s-1","parameterCategory":2,"la1":30.2991,"la2":30.254,"lo1":-89.0895,"lo2":-89.0444,"dy":0.0017,"dx":0.0017,"nx":28,"ny":28,"refTime":"2023-08-17T21:00:00:Z","depth":"4","parameterNumber":3,"parameterNumberName":"V-component_of_CURRENTS"},"data":[0,0,0,0,0,0,0,0,0,0,0,0,0,0,0,0,0,0,0,0,0,0,0,0,0,0,0,0,0,0,0,0,0,0,0,0,0,0,0,0,0,0,0,0,0,0,0,0,0,0,0,0,0,0,0,0,0,0,-0.0001,-0.0,0,0.0089,0.009,0.0092,0.0088,0.0086,0.0084,0.0082,0.0181,0.0185,0.019,0,0,0,0,0,0,0,0,0,0,0,0,0,-0.0075,-0.0074,-0.0001,-0.0,0.0,0.0089,0.0091,0.0092,0.0088,0.0086,0.0084,0.0082,0.018,0.0185,0.019,0,0,0,0,0,0,0,0,0,0,0,0,0,-0.0014,-0.0074,-0.0001,0.0004,0.0005,0.0088,0.0091,0.0093,0.0089,0.0086,0.0083,0.008,0.0178,0.0184,0.0191,0.0288,0,0,0.0211,0.0214,0,0,0,0,0,0,0,0,-0.0018,-0.001,0.0003,0.0004,0.0005,0.0068,0.01,0.0156,0.0089,0.0064,0.0082,0.0079,0.0142,0.0152,0.0184,0.0293,0.0297,0.0212,0.0216,0.0218,0.022,0,0,0,0,0,0,0,-0.0022,-0.0014,0.0042,0.0003,0.0005,0.0035,0.0041,0.0112,0.0123,0.0066,0.0064,0.0065,0.0143,0.0178,0.0186,0.0298,0.0211,0.0217,0.0221,0.0224,0.0362,0.0362,0,0,0,0,0,0,-0.0048,-0.0018,0.0039,0.0044,-0.0021,0.0038,0.0045,0.0056,0.0122,0.0127,0.0067,0.0064,0.0168,0.0178,0.019,0.0243,0.0218,0.0224,0.0228,0.0362,0.0362,0.0362,0,0,0,0,0,0,-0.005,-0.0043,0.0035,0.0009,0.002,0.0041,0.0055,0.0059,0.0082,0.0121,0.0128,0.0081,0.0166,0.018,0.0238,0.0249,0.0227,0.0233,0.0363,0.0362,0.0362,0.0392,0,0,0,0,0,0,-0.0052,-0.0044,-0.0039,0.0007,0.002,0.009,0.0057,0.0063,0.0084,0.0081,0.0137,0.0144,0.0165,0.0229,0.0245,0.0257,0.0239,0.0363,0.0363,0.0362,0.0391,0.0392,0.0393,0,0,0,0,0,-0.0054,-0.0035,-0.0038,-0.0032,0.0025,0.0091,0.0103,0.0112,0.0087,0.0118,0.0135,0.0141,0.0234,0.0236,0.0255,0.0269,0.0363,0.0363,0.0362,0.039,0.0392,0.0393,0,0,0,0,0,0,-0.0062,-0.0033,-0.0036,-0.0009,0.0036,0.0087,0.011,0.0117,0.016,0.0152,0.0173,0.0183,0.0228,0.0246,0.0246,0.0298,0.0288,0.0291,0.0302,0.0305,0.0306,0.0286,0.0244,0,0,0,0,0,-0.0062,-0.0043,-0.0003,0.0021,0.004,0.0076,0.0101,0.0118,0.0156,0.0171,0.0205,0.0225,0.0248,0.0272,0.0307,0.0369,0.0345,0.0375,0.0376,0.0377,0.0369,0.0322,0.0318,0.036,0.036,0.036,0,0,-0.0058,-0.0042,-0.0031,0.002,0.0051,0.011,0.0087,0.0137,0.0176,0.018,0.0241,0.0248,0.0263,0.0311,0.033,0.0327,0.0358,0.0377,0.0378,0.0369,0.0321,0.0317,0.0313,0.0359,0.0359,0.0359,0,0,-0.0028,-0.0025,0.0008,0.0047,0.0095,0.0134,0.0146,0.0206,0.0217,0.0293,0.0267,0.0265,0.0358,0.0334,0.0339,0.037,0.0365,0.0385,0.0389,0.0344,0.034,0.0336,0.0325,0.0319,0.0387,0.0387,0.0387,0,-0.0026,0.0021,0.0033,0.008,0.0111,0.0143,0.0202,0.0237,0.0307,0.0302,0.0315,0.0343,0.0357,0.0347,0.035,0.0372,0.0363,0.0389,0.0346,0.0341,0.0337,0.0325,0.0319,0.0389,0.0388,0.0388,0.0388,0,0.0033,0.0074,0.01,0.0166,0.0208,0.0268,0.0309,0.0344,0.0364,0.0379,0.0383,0.0391,0.0389,0.0389,0.0395,0.0359,0.037,0.0353,0.0344,0.0334,0.0323,0.0316,0.0391,0.039,0.039,0.0389,0,0,0.0033,0.0125,0.0134,0.0174,0.0256,0.0301,0.0353,0.0398,0.0395,0.0442,0.0427,0.044,0.0407,0.0405,0.0383,0.0346,0.0316,0.0349,0.0346,0.0341,0.0249,0.0229,0.022,0.0301,0.03,0.0298,0.0263,0,0.0082,0.0181,0.0213,0.0312,0.0369,0.0395,0.0442,0.0471,0.0478,0.0476,0.0431,0.0436,0.0424,0.0419,0.0374,0.0322,0.0296,0.0329,0.0255,0.0253,0.0238,0.0209,0.0293,0.0258,0.0256,0.0255,0.0254,0,0.0132,0.0191,0.0298,0.0375,0.0398,0.0467,0.05,0.0545,0.0524,0.0512,0.0472,0.0448,0.0392,0.0391,0.0293,0.0323,0.0294,0.0257,0.0254,0.0215,0.0218,0.0262,0.0241,0.0242,0.0243,0.0244,0.0245,0,0.0133,0.0244,0.033,0.0362,0.0463,0.0499,0.0555,0.0559,0.0562,0.0532,0.0512,0.0444,0.0413,0.0351,0.0274,0.0296,0.0165,0.018,0.0137,0.0137,0.0155,0.0159,0.0118,0.0118,0.0118,0.0118,0.0118,0,0.0176,0.0237,0.0345,0.039,0.0473,0.0531,0.0588,0.0596,0.0593,0.0562,0.0537,0.0478,0.0403,0.0319,0.0266,0.0165,0.0156,0.0126,0.0112,0.0173,0.0179,0.0152,0.0156,0.0117,0.0117,0.0117,0.0117,0,0.0177,0.0254,0.0337,0.0444,0.0486,0.0544,0.0636,0.0645,0.0648,0.0599,0.0595,0.0505,0.0401,0.0316,0.0197,0.015,0.0061,0.0036,0.0114,0.0108,0.008,0.0086,0.0001,-0.0001,-0.0002,-0.0003,-0.0003,0,0.0194,0.0247,0.0359,0.0408,0.0473,0.0572,0.0627,0.0672,0.0654,0.0589,0.054,0.0458,0.0384,0.0212,0.0128,0.0029,0.0019,-0.0009,0.0032,0.0066,0.0061,0.0069,0.0077,-0.0005,-0.0005,-0.0006,-0.0006,0,0.0205,0.0243,0.0301,0.0401,0.0481,0.0554,0.0624,0.0591,0.0591,0.0608,0.0489,0.0411,0.0288,0.0185,0.0106,0.003,0.0013,-0.002,-0.0017,0.0021,0.0057,0.0056,0.0065,-0.001,-0.0009,-0.0009,-0.0009,0,0.0194,0.022,0.0295,0.0374,0.046,0.0485,0.0532,0.053,0.0535,0.0459,0.0413,0.0317,0.0283,0.0182,0.0088,0.0027,0.0034,0.0031,0.0031,0.0035,0.0052,0.0103,0.0024,0,0,0,0,0,0.0189,0.0212,0.0268,0.0335,0.0405,0.0474,0.0498,0.0522,0.05,0.0422,0.0424,0.0318,0.0198,0.0149,0.0086,0.0057,0.0002,-0.0021,-0.0007,-0.0031,-0.0027,-0.0016,0,0,0,0,0,0,0.019,0.0236,0.0248,0.0284,0.0329,0.0406,0.0421,0.041,0.0375,0.0355,0.0304,0.0327,0.0221,0.0253,0.0099,0.0079,0.0081,-0.0049,-0.005,-0.0034,-0.003,-0.0026,-0.0014,0,0,0,0,0]}]]